Location: Peterborough
(44.3091°N, 78.3197°W)
Time: 07:15:28
(UTC-05:00)

A-11 Canister half - Pass Details

Date: 14 December 2023
Orbit: 1512 x 1687 km, 47.2° (Epoch: 25 February)

Event Time Altitude Azimuth Distance (km) Brightness Sun altitude
Rises 18:55:50 0° 172° (S) 4,643 11.5 -24.3°
Reaches altitude 10° 19:01:08 10° 147° (SSE) 3,684 10.7 -25.2°
Enters shadow 19:02:07 11° 141° (SE) 3,582 10.6 -25.4°
